Regional Weather Roundup
Issued by NWS

Home | Current Version | Previous Version | Graphics & Text | Print | Product List | Glossary On
Versions: 1 2 3 4 5 6 7 8 9 10 11 12 13 14 15 16 17 18 19 20 21 22 23 24 25 26 27 28 29 30 31 32 33 34 35 36 37 38 39 40 41 42 43 44 45 46 47 48 49 50
000
ASUS43 KMPX 250310
RWRMN
WEATHER ROUNDUP FOR MINNESOTA
NATIONAL WEATHER SERVICE TWIN CITIES/CHANHASSEN MN
900 PM CST WED DEC 24 2014


NOTE: "FAIR" INDICATES FEW OR NO CLOUDS BELOW 12,000 FEET WITH NO
SIGNIFICANT WEATHER AND/OR OBSTRUCTIONS TO VISIBILITY. N/A MEANS
CURRENT SKY AND/OR WEATHER CONDITIONS ARE NOT AVAILABLE.

MNZ060>063-068>070-250400-
   Twin Cities Metro

CITY           SKY/WX    TMP DP  RH WIND       PRES   REMARKS
TWIN CITIES    CLOUDY    32  28  85 SW10      29.60F WCI  24
ST PAUL        CLOUDY    33  29  85 SW9       29.61F WCI  25
CRYSTAL        CLOUDY    34  28  79 SW8       29.58F WCI  27
BLAINE         CLOUDY    36  34  93 SW8       29.59F
LAKEVILLE      CLOUDY    30  28  93 W10       29.61S WCI  21
EDEN PRAIRIE   CLOUDY    32  28  85 SW9       29.60S WCI  24
SOUTH ST PAUL  CLOUDY    34  30  86 SW6       29.61S WCI  29
LAKE ELMO      CLOUDY    34  32  93 SW7       29.60F WCI  28
$$
MNZ001>005-007-008-013>017-022>024-027-028-250400-
   Northwest Minnesota

CITY           SKY/WX    TMP DP  RH WIND       PRES   REMARKS
BEMIDJI        CLOUDY    29  26  90 S6        29.46S WCI  23
HALLOCK        CLOUDY    28  27  93 S14       29.42F FOG     WCI  17
ROSEAU         CLOUDY    28  25  86 SW10      29.44R WCI  19
WARROAD        CLOUDY    28  25  86 S7        29.43F WCI  21
THIEF RVR FALL CLOUDY    27  25  93 S10       29.45F WCI  17
CROOKSTON      CLOUDY    28  27  93 S15       29.47F FOG     WCI  17
FOSSTON        CLOUDY    25  25 100 S13G18    29.46S WCI  13
DETROIT LAKES  CLOUDY    28  28 100 S9        29.49F WCI  20
MOORHEAD       CLOUDY    28  28 100 S12G17    29.50S WCI  18
PARK RAPIDS    CLOUDY    28  26  92 S10       29.48F WCI  19
MAHNOMEN       CLOUDY    27  25  94 S15       29.45F WCI  15
$$
MNZ006-009>011-018-025>026-250400-
   North Central Minnesota

CITY           SKY/WX    TMP DP  RH WIND       PRES   REMARKS
BAUDETTE       CLOUDY    29  26  89 S7        29.44F WCI  22
FLAG ISLAND    CLOUDY    28  27  93 S10       29.43R WCI  19
INTL FALLS     LGT SNOW  31  29  92 S3        29.45F FOG
WASKISH        CLOUDY    30  28  93 CALM      29.45F
BIG FORK       CLOUDY    32  28  86 S6        29.47F WCI  26
LONGVILLE      CLOUDY    30  28  93 S6        29.48F WCI  24
GRAND RAPIDS   CLOUDY    30  28  93 S5        29.48F WCI  25
CRANE LAKE     LGT SNOW  30  30 100 CALM      29.48F
ORR            MIX PCPN  30  28  93 CALM      29.44F
COOK           CLOUDY    30  30 100 SW3       29.47F
WALKER         CLOUDY    28  26  89 SW8       29.48S WCI  20
$$
MNZ012-019>021-037-250400-
   Northeast Minnesota

CITY           SKY/WX    TMP DP  RH WIND       PRES   REMARKS
DULUTH         LGT SNOW  31  28  89 W12       29.49F FOG     WCI  22
ELY            LGT SNOW  30  30 100 SW3       29.46F
HIBBING        CLOUDY    32  29  88 S3        29.48F
EVELETH        CLOUDY    32  32 100 SW5       29.49S WCI  27
DULUTH HARBOR  CLOUDY    34  30  86 CALM      29.53S
TWO HARBORS    CLOUDY    36  30  80 W5        29.48S
SILVER BAY     CLOUDY    34  30  86 CALM      29.48S
GRAND MARAIS     N/A     33  29  85 NW3       29.50F
G MARAIS ARPRT CLOUDY    27  25  93 CALM      29.45F
$$
MNZ029>031-032-039>041-046>048-054>057-064-250400-
   West Central Minnesota

CITY           SKY/WX    TMP DP  RH WIND       PRES   REMARKS
FERGUS FALLS   CLOUDY    28  27  93 S12       29.54F WCI  18
WHEATON        CLOUDY    27  25  93 S9        29.54F WCI  17
MORRIS         CLOUDY    28  27  93 S12       29.53F WCI  18
ALEXANDRIA     CLOUDY    28  26  92 SW15      29.54F WCI  16
ELBOW LAKE     CLOUDY    28  26  96 S13       29.53F WCI  17
WADENA         CLOUDY    27  27 100 SW9       29.51F WCI  17
GLENWOOD       CLOUDY    28  28 100 S12       29.55F FOG     WCI  18
APPLETON       CLOUDY    28  27  93 S7        29.55F WCI  21
BENSON         CLOUDY    28  27  93 SW9       29.57F WCI  20
ORTONVILLE     CLOUDY    28  25  86 S8        29.54F WCI  20
MADISON          N/A     30  28  93 S7        29.56F WCI  23
WILLMAR        CLOUDY    30  27  86 SW8       29.59F WCI  23
$$
MNZ033>034-036-042>043-049>051-058-059-250400-
   Central Minnesota

CITY           SKY/WX    TMP DP  RH WIND       PRES   REMARKS
ST CLOUD       CLOUDY    33  27  78 SW9       29.56F WCI  25
SAUK CENTRE    CLOUDY    28  28  96 SW9       29.55F WCI  20
PAYNESVILLE    CLOUDY    28  27  96 S8        29.57F WCI  19
AITKIN         CLOUDY    34  28  80 SW5       29.50F WCI  30
PINE RIVER     CLOUDY    30  27  86 S9        29.55F WCI  22
BRAINERD       CLOUDY    30  27  88 SW9       29.52F WCI  22
STAPLES        CLOUDY    28  27  93 SW8       29.52F WCI  20
LONG PRAIRIE   CLOUDY    28  28 100 W9        29.54F FOG     WCI  20
LITTLE FALLS   CLOUDY    32  28  86 SW10      29.55F WCI  24
LITCHFIELD     CLOUDY    30  30 100 SW5       29.59F WCI  25
BUFFALO        CLOUDY    31  28  86 SW6       29.60S WCI  25
MAPLE LAKE     CLOUDY    32  30  92 SW9       29.59F WCI  24
$$
MNZ037-044-045-052-053-250400-
   East Central Minnesota

CITY           SKY/WX    TMP DP  RH WIND       PRES   REMARKS
PRINCETON      CLOUDY    34  28  80 SW6       29.57S WCI  29
MORA           CLOUDY    32  28  86 SW7       29.57S WCI  26
CAMBRIDGE      CLOUDY    34  27  75 SW6       29.55S WCI  29
RUSH CITY      CLOUDY    32  30  90 SW6       29.56S WCI  27
MOOSE LAKE     CLOUDY    32  30  93 SW8       29.51F WCI  25
HINCKLEY       CLOUDY    32  32 100 CALM      29.55S
CLOQUET        CLOUDY    32  28  86 SW5       29.51S WCI  27
MCGREGOR       CLOUDY    32  30  93 SW6       29.52S WCI  26
$$
MNZ071>073-080-081-089-090-097-098-250400-
   Southwest Minnesota

CITY           SKY/WX    TMP DP  RH WIND       PRES   REMARKS
MONTEVIDEO     CLOUDY    28  28 100 SW8       29.59S WCI  20
GRANITE FALLS  CLOUDY    28  26  92 S9        29.60S WCI  19
CANBY          MOCLDY    28  25  91 CALM      29.57F
MARSHALL       CLOUDY    27  23  86 SW16      29.58F WCI  14
REDWOOD FALLS  CLOUDY    30  26  85 S13       29.61F WCI  20
OLIVIA         CLOUDY    28  27  93 SW14      29.59F WCI  17
PIPESTONE      CLOUDY    25  25 100 SW10      29.57F FOG     WCI  15
WINDOM         CLOUDY    27  27 100 SW13G18   29.62F WCI  16
WORTHINGTON    CLOUDY    25 -20  13 SW16      29.62F WCI  12
JACKSON        CLOUDY    28  27  93 SW14      29.62F WCI  17
TRACY          CLOUDY    28  27  95 SW15      29.59F WCI  16
SLAYTON        CLOUDY    25  25  98 SW15      29.60F FOG     WCI  13
$$
MNZ065>067-074>077-082>085-091>093-250400-
   South Central Minnesota

CITY           SKY/WX    TMP DP  RH WIND       PRES   REMARKS
MANKATO        CLOUDY    32  27  80 SW8       29.62F WCI  25
NEW ULM        CLOUDY    30  28  93 SW12      29.61F WCI  21
ST JAMES       CLOUDY    30  27  86 SW12      29.64F WCI  21
FAIRMONT       CLOUDY    28  25  86 SW13      29.63F WCI  18
GLENCOE        CLOUDY    32  31  94 SW5       29.60F WCI  27
FARIBAULT      CLOUDY    32  28  86 SW8       29.61F WCI  25
OWATONNA       CLOUDY    30  28  93 W10       29.62S WCI  21
ALBERT LEA     CLOUDY    30  30 100 W10       29.64R WCI  21
$$
MNZ078>079-086>088-094>096-250400-
   Southeast Minnesota

CITY           SKY/WX    TMP DP  RH WIND       PRES   REMARKS
ROCHESTER      CLOUDY    31  28  89 W13       29.62S WCI  21
RED WING       CLOUDY    34  30  86 W8        29.60F WCI  27
STANTON        CLOUDY    33  29  85 W7        29.60F WCI  27
DODGE CENTER   CLOUDY    30  28  93 W14       29.61F WCI  20
WINONA         CLOUDY    36  32  87 W8        29.62F
AUSTIN         CLOUDY    30  28  93 W9        29.63R WCI  22
PRESTON        CLOUDY    31  28  90 W6        29.62S WCI  25
$$
ABBREVIATIONS USED IN REMARKS
   TC - TEMPERATURES IN CELSIUS
  WCI - WIND CHILL INDEX
   HX - HEAT INDEX
  VSB - VISIBILITY
$$



USA.gov is the U.S. government's official web portal to all federal, state and local government web resources and services.